Flag for Monaco Weather past 2 weeks in Monaco, Monaco

Now
68 °F

Partly cloudy.


Feels Like: 68 °F
Forecast: 62 / 74 °F
Wind: 6 mph from Northwest

Location: Nice Airport

Current Time: Sep 15, 2014 at 7:06:12 AM

Latest Report: Sep 15, 2014 at 6:30 AM


Visibility: N/A

Pressure: 29.95 "Hg

Humidity: 78%

Dew point: 61 °F

Location of MonacoLocation

Historic Weather in Monaco — Graph

°F

Monaco temperature yesterday

Maximum temperature yesterday: 75 °F (at 10:30 AM)
Minimum temperature yesterday: 64 °F (at 6:00 AM)
Average temperature yesterday: 71 °F

Past Weeks' High & Low Weather Summary

 TemperatureHumidityPressure
High81 °F (Sep 1, 1:30 PM)89% (Sep 7, 10:30 PM)30.04 "Hg (Sep 7, 10:30 PM)
Low64 °F (Sep 13, 6:30 AM)36% (Sep 2, 10:00 AM)29.68 "Hg (Sep 1, 12:00 AM)
Average73 °F66%29.89 "Hg
* Reported Aug 31 6:00 AM — Sep 15 6:00 AM, Monaco, Weather by CustomWeather, © 2014

Note: Actual official high and low records may vary slightly from our data, if they occured in-between our weather recording intervals... More about our weather records

Advertising

Monaco weather history for previous 24 hours

 ConditionsComfort  
Time TempWeatherWind HumidityBarometerVisibility
6:00 AM
Sep 15
68 °FPartly cloudy.6 mph78%29.95 "HgN/A
5:30 AM68 °FPartly cloudy.6 mph73%29.95 "HgN/A
5:00 AM68 °FPartly cloudy.6 mph78%29.95 "HgN/A
4:30 AM68 °FPartly cloudy.8 mph78%29.95 "HgN/A
4:00 AM68 °FPartly cloudy.5 mph78%29.95 "HgN/A
3:30 AM68 °FPartly cloudy.7 mph78%29.98 "HgN/A
3:00 AM68 °FPartly cloudy.5 mph78%29.98 "HgN/A
2:30 AM70 °FPartly cloudy.5 mph73%29.98 "HgN/A
2:00 AM70 °FPartly cloudy.5 mph73%29.98 "HgN/A
1:30 AM70 °FPartly cloudy.2 mph78%29.98 "HgN/A
1:00 AM70 °FPassing clouds.2 mph78%29.98 "HgN/A
12:30 AM70 °FPassing clouds.5 mph78%29.98 "HgN/A
12:00 AM70 °FPassing clouds.3 mph78%29.98 "HgN/A
11:30 PM
Sep 14
70 °FPartly cloudy.3 mph78%29.98 "HgN/A
11:00 PM70 °FPartly cloudy.2 mph78%29.98 "HgN/A
10:30 PM72 °FPassing clouds.No wind73%29.98 "HgN/A
10:00 PM72 °FPartly cloudy.1 mph73%29.95 "HgN/A
9:30 PM72 °FPartly cloudy.1 mph73%29.95 "HgN/A
9:00 PM72 °FPartly cloudy.1 mph73%29.95 "HgN/A
8:30 PM73 °FBroken clouds.2 mph69%29.95 "HgN/A
8:00 PM73 °FBroken clouds.3 mph69%29.95 "HgN/A
7:30 PM73 °FScattered clouds.3 mph69%29.95 "HgN/A
7:00 PM73 °FPassing clouds.5 mph74%29.95 "HgN/A
6:30 PM75 °FPassing clouds.6 mph69%29.95 "HgN/A
6:00 PM75 °FPassing clouds.6 mph65%29.95 "HgN/A
5:30 PM75 °FScattered clouds.7 mph69%29.95 "HgN/A
5:00 PM75 °FScattered clouds.8 mph65%29.95 "HgN/A
4:30 PM75 °FScattered clouds.8 mph69%29.95 "HgN/A
4:00 PM75 °FScattered clouds.7 mph69%29.95 "HgN/A
3:30 PM75 °FScattered clouds.7 mph69%29.95 "HgN/A
3:00 PM75 °FScattered clouds.8 mph65%29.95 "HgN/A
2:30 PM75 °FScattered clouds.8 mph69%29.98 "HgN/A
2:00 PM75 °FPassing clouds.9 mph69%29.98 "HgN/A
1:30 PM75 °FPassing clouds.8 mph69%29.98 "HgN/A
1:00 PM75 °FPassing clouds.8 mph69%29.98 "HgN/A
12:30 PM75 °FPassing clouds.7 mph65%29.98 "HgN/A
12:00 PM73 °FPassing clouds.6 mph69%29.98 "HgN/A
11:30 AM75 °FPassing clouds.3 mph57%29.98 "HgN/A
11:00 AM75 °FPassing clouds.3 mph57%29.98 "HgN/A
10:30 AM75 °FPassing clouds.3 mph54%29.98 "HgN/A
10:00 AM73 °FPassing clouds.3 mph53%29.98 "HgN/A
9:30 AM72 °FPassing clouds.5 mph53%29.98 "HgN/A
9:00 AM68 °FPassing clouds.7 mph60%29.98 "HgN/A
8:30 AM68 °FPassing clouds.9 mph64%29.98 "HgN/A
8:00 AM66 °FPassing clouds.8 mph64%29.98 "HgN/A
7:30 AM64 °FPassing clouds.10 mph68%29.98 "HgN/A
7:00 AM64 °FPassing clouds.5 mph68%29.98 "HgN/A
Weather by CustomWeather, © 2014

See weather overviewHow to use our weather pages